This is the latest recevied weather packets stored in our database for station/object OE3MHU-13. If no packets are shown the sender has not sent any weather packets the latest 10 day(s).
| Time | Temp. | Humidity | Pressure | Rain* | Wind** | Luminosity | Snow |
|---|---|---|---|---|---|---|---|
| 1777627175 | 17.22° C | 41% | 1030.4 hPa | 0 mm | - | - | - |
| 1777626875 | 17.22° C | 40% | 1030.5 hPa | 0 mm | - | - | - |
| 1777626575 | 17.22° C | 41% | 1030.5 hPa | 0 mm | - | - | - |
| 1777626276 | 16.67° C | 40% | 1030.7 hPa | 0 mm | - | - | - |
| 1777625975 | 16.67° C | 41% | 1030.6 hPa | 0 mm | - | - | - |
| 1777625673 | 16.67° C | 40% | 1030.6 hPa | 0 mm | - | - | - |
| 1777625372 | 16.67° C | 40% | 1030.7 hPa | 0 mm | - | - | - |
| 1777625072 | 16.67° C | 42% | 1030.6 hPa | 0 mm | - | - | - |
| 1777624769 | 16.67° C | 42% | 1030.8 hPa | 0 mm | - | - | - |
| 1777624469 | 16.11° C | 42% | 1030.8 hPa | 0 mm | - | - | - |
| 1777624163 | 16.11° C | 43% | 1030.8 hPa | 0 mm | - | - | - |
| 1777623863 | 15.56° C | 43% | 1030.8 hPa | 0 mm | - | - | - |
| 1777623563 | 15.56° C | 43% | 1030.8 hPa | 0 mm | - | - | - |
| 1777623263 | 15.56° C | 45% | 1030.8 hPa | 0 mm | - | - | - |
| 1777622963 | 14.44° C | 48% | 1030.9 hPa | 0 mm | - | - | - |
| 1777622788 | 12.78° C | 48% | 1031 hPa | 0 mm | - | - | - |
| 1777622781 | 13.89° C | 48% | 1031 hPa | 0 mm | - | - | - |
| 1777622063 | 12.22° C | 48% | 1030.9 hPa | 0 mm | - | - | - |
| 1777621882 | 12.22° C | 48% | 1030.9 hPa | 0 mm | - | - | - |
| 1777621876 | 12.22° C | 48% | 1030.9 hPa | 0 mm | - | - | - |
| 1777621163 | 12.22° C | 47% | 1030.8 hPa | 0 mm | - | - | - |
| 1777620864 | 12.22° C | 48% | 1030.8 hPa | 0 mm | - | - | - |
| 1777620561 | 12.22° C | 48% | 1030.8 hPa | 0 mm | - | - | - |
| 1777620261 | 11.67° C | 49% | 1030.9 hPa | 0 mm | - | - | - |
| 1777619961 | 11.67° C | 49% | 1030.8 hPa | 0 mm | - | - | - |
* Rain latest hour (hover to see other rain measurements)
** Current wind speed in m/s (hover to see current wind gust speed)